Torna al catalogo

STARLINK-4707

AttivoComunicazioniVLEO
NORAD 53721·PAYLOAD·🇺🇸 United States

Lanciato Sep 5, 2022 da Cape Canaveral Space Force Station

Loading…

Prossimi Passaggi (prossime 24 ore)

TLE

AggiornatoSource: CelesTrak SupGP

Epoca: Sep 14, 2026, 13:12 UTC

1 53721C 22107X   26257.55048611  .00033907  00000+0  10018-2 0  2572
2 53721  53.1574 113.2979 0001220 101.3430 180.3693 15.34374067    15

Traccia STARLINK-4707 in tempo reale con AllMySat

Download on the App Store